Home > Weather > Greater Sudbury > Past weeks

Flag for Canada Weather for the Past 2 Weeks in Greater Sudbury, Ontario, Canada

Now
18 °F

Light snow. More clouds than sun.


Feels Like: 5 °F
Forecast: 12 / 24 °F
Wind: 12 mph from Northeast

Location: Sudbury

Current Time: Feb 9, 2016 at 9:59:57 AM

Latest Report: Feb 9, 2016 at 9:00 AM


Visibility: 4 mi

Pressure: 29.62 "Hg

Humidity: 86%

Dew point: 14 °F

Location of Greater SudburyLocation

Historic Weather in Greater Sudbury — Graph

°F

Greater Sudbury Temperature Yesterday

Maximum temperature yesterday: 25 °F (at 12:00 AM)
Minimum temperature yesterday: 23 °F (at 1:00 AM)
Average temperature yesterday: 24 °F

High & Low Weather Summary for the Past Weeks

 TemperatureHumidityPressure
High36 °F (Jan 31, 1:00 PM)100% (Jan 25, 10:00 AM)30.36 "Hg (Jan 25, 10:00 AM)
Low-11 °F (Jan 29, 8:00 AM)66% (Jan 29, 3:00 PM)29.34 "Hg (Jan 28, 3:00 PM)
Average20 °F89%29.84 "Hg
* Reported Jan 25 8:00 AM — Feb 9 8:00 AM, Greater Sudbury, Weather by CustomWeather, © 2016

Note: Actual official high and low records may vary slightly from our data, if they occured in-between our weather recording intervals... More about our weather records

Advertising

Greater Sudbury Weather History for the Previous 24 Hours

 ConditionsComfort  
Time TempWeatherWind HumidityBarometerVisibility
8:00 AM
Tue, Feb 9
18 °FLight snow. More clouds than sun.10 mph86%29.62 "Hg4 mi
7:00 AM18 °FLight snow. Mostly cloudy.13 mph93%29.61 "Hg2 mi
6:00 AM19 °FLight snow. Mostly cloudy.13 mph86%29.61 "Hg2 mi
5:00 AM21 °FLight snow. Mostly cloudy.10 mph93%29.61 "Hg2 mi
4:00 AM21 °FLight snow. Mostly cloudy.9 mph93%29.61 "Hg3 mi
3:00 AM21 °FLight snow. Mostly cloudy.13 mph93%29.62 "Hg3 mi
2:00 AM23 °FLight snow. Low clouds.12 mph93%29.63 "Hg2 mi
1:00 AM23 °FLight snow. Low clouds.10 mph93%29.64 "Hg6 mi
12:00 AM25 °FLight snow. Low clouds.10 mph93%29.65 "Hg3 mi
11:00 PM
Mon, Feb 8
25 °FLight snow. Mostly cloudy.12 mph93%29.64 "Hg3 mi
10:00 PM25 °FLight snow. Mostly cloudy.10 mph93%29.65 "Hg2 mi
9:00 PM25 °FLight snow. Low clouds.9 mph100%29.66 "Hg2 mi
8:00 PM23 °FLight snow. Mostly cloudy.8 mph100%29.68 "Hg2 mi
7:00 PM23 °FLight snow. Mostly cloudy.12 mph100%29.68 "Hg2 mi
6:00 PM23 °FLight snow. Mostly cloudy.13 mph100%29.69 "Hg2 mi
5:00 PM23 °FLight snow. Low clouds.10 mph93%29.68 "Hg2 mi
4:00 PM23 °FLight snow. Overcast.10 mph93%29.69 "Hg2 mi
3:00 PM23 °FOvercast.10 mph93%29.68 "Hg2 mi
2:00 PM23 °FLight snow. Mostly cloudy.10 mph93%29.69 "Hg1 mi
1:00 PM23 °FLight snow. Mostly cloudy.12 mph93%29.70 "Hg2 mi
12:00 PM25 °FLight snow. Ice fog.14 mph86%29.71 "Hg1 mi
11:00 AM23 °FLight snow. Low clouds.14 mph93%29.72 "Hg1 mi
10:50 AM23 °FLight snow. Low clouds.13 mph93%29.72 "Hg2 mi
10:00 AM25 °FLight snow. Low clouds.12 mph93%29.72 "Hg7 mi
9:00 AM25 °FLight snow. Low clouds.14 mph86%29.72 "Hg5 mi
Weather by CustomWeather, © 2016

See weather overviewHow to use our weather pages